Tracking 19575 objects as of 19-Feb-2019
HD Live streaming from Space Station
objects crossing your sky now

INSAT 2B

Track INSAT 2B now!
INSAT 2B is classified as:


NORAD ID: 22724
Int'l Code: 1993-048B
Perigee: 35,836.5 km
Apogee: 35,924.2 km
Inclination: 13.4 °
Period: 1,440.5 minutes
Semi major axis: 42251 km
RCS: 19.9526 m2 (large)
Launch date: July 22, 1993
Source: India (IND)
Launch site: FRENCH GUIANA (FRGUI)

Second of Spain's communications satellites; 15 multi-frequency transponders
aabbcc
Your satellite tracking list
Your tracking list is empty




NASA's NSSDC Master Catalog

Two Line Element Set (TLE):
1 22724U 93048B   19049.52063597 -.00000141  00000-0  00000+0 0  9997
2 22724  13.4357  23.5122 0010376 171.8741  45.6152  0.99963685 93834
Source of the keplerian elements: AFSPC